Wetterdaten: Freitag, 15.05.2015
Datum Zeit Temp. A. Feuchte A. Luftdruck Regen Wind Richtung Richtung Sonnenschein ET UV Solar Taupunkt Windchill Windben Empfang
15.05.2015 00:00 11,9 C 88 % 1009,0 hPa 0,0 l/m 0,0 km/h (0 Bft) S 180 0 min 0,000 mm 0,0 UV-I 0 W/m 10,0 C 11,9 C 0,0 km/h (0 Bft) 0,00 %
15.05.2015 00:15 11,9 C 88 % 1009,0 hPa 0,0 l/m 0,0 km/h (0 Bft) O-SO 113 0 min 0,000 mm 0,0 UV-I 0 W/m 10,0 C 11,9 C 0,0 km/h (0 Bft) 0,00 %
15.05.2015 00:30 12,4 C 86 % 1009,1 hPa 0,0 l/m 0,0 km/h (0 Bft) S 170 0 min 0,000 mm 0,0 UV-I 0 W/m 10,1 C 12,4 C 0,0 km/h (0 Bft) 0,00 %
15.05.2015 00:45 12,3 C 88 % 1009,2 hPa 0,0 l/m 0,0 km/h (0 Bft) S 189 0 min 0,000 mm 0,0 UV-I 0 W/m 10,4 C 12,3 C 0,0 km/h (0 Bft) 0,00 %
15.05.2015 01:00 12,0 C 89 % 1008,6 hPa 0,0 l/m 0,0 km/h (0 Bft) S-SO 147 0 min 0,000 mm 0,0 UV-I 0 W/m 10,2 C 12,0 C 0,0 km/h (0 Bft) 0,00 %
15.05.2015 01:15 12,0 C 88 % 1008,6 hPa 0,0 l/m 0,0 km/h (0 Bft) S 173 0 min 0,000 mm 0,0 UV-I 0 W/m 10,1 C 12,0 C 0,0 km/h (0 Bft) 0,00 %
15.05.2015 01:30 12,0 C 89 % 1008,2 hPa 0,0 l/m 2,2 km/h (1 Bft) O-SO 120 0 min 0,000 mm 0,0 UV-I 0 W/m 10,2 C 12,0 C 7,9 km/h (2 Bft) 0,00 %
15.05.2015 01:45 11,7 C 90 % 1008,3 hPa 0,0 l/m 0,4 km/h (0 Bft) SO 133 0 min 0,000 mm 0,0 UV-I 0 W/m 10,1 C 11,7 C 4,0 km/h (1 Bft) 0,00 %
15.05.2015 02:00 11,6 C 89 % 1008,1 hPa 0,0 l/m 0,4 km/h (0 Bft) SO 138 0 min 0,000 mm 0,0 UV-I 0 W/m 9,8 C 11,6 C 4,0 km/h (1 Bft) 0,00 %
15.05.2015 02:15 11,7 C 87 % 1008,0 hPa 0,0 l/m 2,9 km/h (1 Bft) O-NO 66 0 min 0,000 mm 0,0 UV-I 0 W/m 9,6 C 11,7 C 4,0 km/h (1 Bft) 0,00 %
15.05.2015 02:30 11,6 C 86 % 1007,9 hPa 0,0 l/m 5,4 km/h (1 Bft) O-SO 115 0 min 0,000 mm 0,0 UV-I 0 W/m 9,3 C 11,6 C 7,9 km/h (2 Bft) 0,00 %
15.05.2015 02:45 11,4 C 89 % 1007,9 hPa 0,0 l/m 2,2 km/h (1 Bft) SO 124 0 min 0,000 mm 0,0 UV-I 0 W/m 9,7 C 11,4 C 4,0 km/h (1 Bft) 0,00 %
15.05.2015 03:00 11,3 C 89 % 1007,8 hPa 0,0 l/m 7,9 km/h (2 Bft) O-NO 69 0 min 0,000 mm 0,0 UV-I 0 W/m 9,6 C 10,3 C 11,9 km/h (2 Bft) 0,00 %
15.05.2015 03:15 11,3 C 86 % 1008,1 hPa 0,0 l/m 6,5 km/h (2 Bft) SO 128 0 min 0,000 mm 0,0 UV-I 0 W/m 9,0 C 11,3 C 7,9 km/h (2 Bft) 0,00 %
15.05.2015 03:30 11,2 C 85 % 1007,7 hPa 0,0 l/m 6,8 km/h (2 Bft) O 83 0 min 0,000 mm 0,0 UV-I 0 W/m 8,8 C 10,9 C 7,9 km/h (2 Bft) 0,00 %
15.05.2015 03:45 11,2 C 82 % 1008,0 hPa 0,0 l/m 8,3 km/h (2 Bft) O-SO 111 0 min 0,000 mm 0,0 UV-I 0 W/m 8,2 C 9,9 C 11,9 km/h (2 Bft) 0,00 %
15.05.2015 04:00 11,0 C 81 % 1007,9 hPa 0,0 l/m 3,2 km/h (1 Bft) O-SO 105 0 min 0,000 mm 0,0 UV-I 0 W/m 7,9 C 11,0 C 7,9 km/h (2 Bft) 0,00 %
15.05.2015 04:15 11,0 C 78 % 1008,1 hPa 0,0 l/m 6,8 km/h (2 Bft) O-SO 110 0 min 0,000 mm 0,0 UV-I 0 W/m 7,3 C 10,7 C 11,9 km/h (2 Bft) 0,00 %
15.05.2015 04:30 11,2 C 75 % 1008,1 hPa 0,0 l/m 4,7 km/h (1 Bft) O-NO 60 0 min 0,000 mm 0,0 UV-I 0 W/m 6,9 C 11,2 C 7,9 km/h (2 Bft) 0,00 %
15.05.2015 04:45 11,0 C 77 % 1008,1 hPa 0,0 l/m 11,9 km/h (2 Bft) O 96 0 min 0,000 mm 0,0 UV-I 0 W/m 7,1 C 7,7 C 19,8 km/h (3 Bft) 0,00 %
15.05.2015 05:00 10,9 C 79 % 1008,0 hPa 0,0 l/m 3,2 km/h (1 Bft) O-NO 62 0 min 0,000 mm 0,0 UV-I 0 W/m 7,4 C 10,9 C 4,0 km/h (1 Bft) 0,00 %
15.05.2015 05:15 10,8 C 79 % 1007,7 hPa 0,0 l/m 4,3 km/h (1 Bft) O-SO 108 0 min 0,000 mm 0,0 UV-I 0 W/m 7,3 C 10,8 C 7,9 km/h (2 Bft) 0,00 %
15.05.2015 05:30 10,8 C 79 % 1008,1 hPa 0,0 l/m 6,5 km/h (2 Bft) SO 130 0 min 0,000 mm 0,0 UV-I 0 W/m 7,3 C 10,8 C 7,9 km/h (2 Bft) 0,00 %
15.05.2015 05:45 10,8 C 79 % 1008,3 hPa 0,0 l/m 10,4 km/h (2 Bft) O-SO 123 0 min 0,000 mm 0,0 UV-I 0 W/m 7,3 C 8,3 C 11,9 km/h (2 Bft) 0,00 %
15.05.2015 06:00 10,8 C 79 % 1008,3 hPa 0,0 l/m 4,0 km/h (1 Bft) O-SO 105 0 min 0,000 mm 0,0 UV-I 16 W/m 7,3 C 10,8 C 7,9 km/h (2 Bft) 0,00 %
15.05.2015 06:15 10,8 C 79 % 1008,5 hPa 0,0 l/m 6,5 km/h (2 Bft) O 97 0 min 0,000 mm 0,0 UV-I 27 W/m 7,3 C 10,8 C 7,9 km/h (2 Bft) 0,00 %
15.05.2015 06:30 10,8 C 80 % 1008,4 hPa 0,0 l/m 6,8 km/h (2 Bft) O 95 0 min 0,000 mm 0,0 UV-I 42 W/m 7,5 C 10,5 C 7,9 km/h (2 Bft) 0,00 %
15.05.2015 06:45 10,9 C 79 % 1008,4 hPa 0,0 l/m 7,2 km/h (2 Bft) S-SO 156 0 min 0,000 mm 0,0 UV-I 49 W/m 7,4 C 10,3 C 11,9 km/h (2 Bft) 0,00 %
15.05.2015 07:00 10,9 C 80 % 1009,1 hPa 0,0 l/m 6,8 km/h (2 Bft) O-SO 118 0 min 0,000 mm 1,0 UV-I 57 W/m 7,6 C 10,6 C 7,9 km/h (2 Bft) 0,00 %
15.05.2015 07:15 10,9 C 80 % 1009,1 hPa 0,0 l/m 0,7 km/h (0 Bft) NO 46 0 min 0,000 mm 1,0 UV-I 65 W/m 7,6 C 10,9 C 4,0 km/h (1 Bft) 0,00 %
15.05.2015 07:30 10,9 C 80 % 1008,9 hPa 0,0 l/m 1,8 km/h (1 Bft) O-SO 122 0 min 0,000 mm 1,0 UV-I 72 W/m 7,6 C 10,9 C 4,0 km/h (1 Bft) 0,00 %
15.05.2015 07:45 11,0 C 80 % 1009,1 hPa 0,0 l/m 2,2 km/h (1 Bft) O 97 0 min 0,000 mm 1,0 UV-I 79 W/m 7,7 C 11,0 C 4,0 km/h (1 Bft) 0,00 %
15.05.2015 08:00 11,1 C 79 % 1009,1 hPa 0,0 l/m 5,4 km/h (1 Bft) O 100 0 min 0,000 mm 1,0 UV-I 95 W/m 7,6 C 11,1 C 7,9 km/h (2 Bft) 0,00 %
15.05.2015 08:15 11,2 C 78 % 1009,1 hPa 0,0 l/m 7,2 km/h (2 Bft) O-SO 108 0 min 0,000 mm 1,0 UV-I 108 W/m 7,5 C 10,6 C 11,9 km/h (2 Bft) 0,00 %
15.05.2015 08:30 11,3 C 78 % 1009,1 hPa 0,0 l/m 2,9 km/h (1 Bft) S 178 0 min 0,000 mm 1,0 UV-I 120 W/m 7,6 C 11,3 C 7,9 km/h (2 Bft) 0,00 %
15.05.2015 08:45 11,4 C 77 % 1009,2 hPa 0,0 l/m 0,7 km/h (0 Bft) S 189 0 min 0,000 mm 1,0 UV-I 138 W/m 7,5 C 11,4 C 4,0 km/h (1 Bft) 0,00 %
15.05.2015 09:00 11,4 C 77 % 1009,2 hPa 0,0 l/m 2,2 km/h (1 Bft) NO 49 0 min 0,000 mm 1,0 UV-I 152 W/m 7,5 C 11,4 C 4,0 km/h (1 Bft) 0,00 %
15.05.2015 09:15 11,4 C 76 % 1009,2 hPa 0,0 l/m 8,3 km/h (2 Bft) O 100 0 min 0,000 mm 1,0 UV-I 158 W/m 7,3 C 10,1 C 11,9 km/h (2 Bft) 0,00 %
15.05.2015 09:30 11,5 C 76 % 1009,4 hPa 0,0 l/m 3,2 km/h (1 Bft) O-NO 61 0 min 0,000 mm 1,0 UV-I 171 W/m 7,4 C 11,5 C 7,9 km/h (2 Bft) 0,00 %
15.05.2015 09:45 11,6 C 75 % 1009,6 hPa 0,0 l/m 3,2 km/h (1 Bft) O 85 0 min 0,000 mm 1,0 UV-I 172 W/m 7,3 C 11,6 C 7,9 km/h (2 Bft) 0,00 %
15.05.2015 10:00 11,8 C 75 % 1009,7 hPa 0,0 l/m 0,0 km/h (0 Bft) S-SW 210 0 min 0,000 mm 1,0 UV-I 185 W/m 7,5 C 11,8 C 0,0 km/h (0 Bft) 0,00 %
15.05.2015 10:15 12,0 C 75 % 1009,8 hPa 0,0 l/m 1,4 km/h (1 Bft) N-NO 33 0 min 0,000 mm 2,0 UV-I 204 W/m 7,7 C 12,0 C 4,0 km/h (1 Bft) 0,00 %
15.05.2015 10:30 12,2 C 73 % 1009,9 hPa 0,0 l/m 5,4 km/h (1 Bft) O 79 0 min 0,000 mm 2,0 UV-I 239 W/m 7,5 C 12,2 C 7,9 km/h (2 Bft) 0,00 %
15.05.2015 10:45 12,3 C 71 % 1010,1 hPa 0,0 l/m 2,2 km/h (1 Bft) O 94 0 min 0,000 mm 2,0 UV-I 296 W/m 7,2 C 12,3 C 4,0 km/h (1 Bft) 0,00 %
15.05.2015 11:00 13,0 C 72 % 1010,1 hPa 0,0 l/m 5,8 km/h (2 Bft) O-SO 105 0 min 0,000 mm 2,0 UV-I 330 W/m 8,1 C 13,0 C 7,9 km/h (2 Bft) 0,00 %
15.05.2015 11:15 13,0 C 72 % 1010,2 hPa 0,0 l/m 9,0 km/h (2 Bft) O-SO 112 0 min 0,000 mm 3,0 UV-I 311 W/m 8,1 C 11,4 C 11,9 km/h (2 Bft) 0,00 %
15.05.2015 11:30 13,5 C 69 % 1010,4 hPa 0,0 l/m 2,9 km/h (1 Bft) SO 137 0 min 0,000 mm 3,0 UV-I 398 W/m 7,9 C 13,5 C 4,0 km/h (1 Bft) 0,00 %
15.05.2015 11:45 13,7 C 70 % 1010,3 hPa 0,0 l/m 4,0 km/h (1 Bft) S-SO 161 0 min 0,000 mm 2,0 UV-I 397 W/m 8,3 C 13,7 C 7,9 km/h (2 Bft) 0,00 %
15.05.2015 12:00 13,9 C 68 % 1010,5 hPa 0,0 l/m 10,4 km/h (2 Bft) O-SO 113 0 min 0,000 mm 2,0 UV-I 370 W/m 8,1 C 11,7 C 11,9 km/h (2 Bft) 0,00 %
15.05.2015 12:15 14,1 C 68 % 1010,7 hPa 0,0 l/m 5,4 km/h (1 Bft) O-SO 102 0 min 0,000 mm 3,0 UV-I 365 W/m 8,3 C 14,1 C 7,9 km/h (2 Bft) 0,00 %
15.05.2015 12:30 14,4 C 68 % 1010,6 hPa 0,0 l/m 10,4 km/h (2 Bft) O-SO 114 0 min 0,000 mm 3,0 UV-I 391 W/m 8,6 C 12,3 C 15,8 km/h (3 Bft) 0,00 %
15.05.2015 12:45 14,4 C 70 % 1010,3 hPa 0,0 l/m 7,2 km/h (2 Bft) SO 127 0 min 0,000 mm 3,0 UV-I 401 W/m 9,0 C 13,9 C 11,9 km/h (2 Bft) 0,00 %
15.05.2015 13:00 14,7 C 68 % 1010,6 hPa 0,0 l/m 2,9 km/h (1 Bft) N 356 0 min 0,000 mm 3,0 UV-I 388 W/m 8,9 C 14,7 C 4,0 km/h (1 Bft) 0,00 %
15.05.2015 13:15 14,9 C 67 % 1010,5 hPa 0,0 l/m 7,2 km/h (2 Bft) S-SO 147 0 min 0,000 mm 3,0 UV-I 411 W/m 8,8 C 14,4 C 7,9 km/h (2 Bft) 0,00 %
15.05.2015 13:30 15,0 C 68 % 1010,4 hPa 0,0 l/m 1,8 km/h (1 Bft) O-SO 116 0 min 0,000 mm 3,0 UV-I 460 W/m 9,1 C 15,0 C 4,0 km/h (1 Bft) 0,00 %
15.05.2015 13:45 14,9 C 69 % 1010,3 hPa 0,0 l/m 4,3 km/h (1 Bft) O-SO 102 15 min 0,000 mm 2,0 UV-I 484 W/m 9,3 C 14,9 C 7,9 km/h (2 Bft) 0,00 %
15.05.2015 14:00 14,8 C 70 % 1010,8 hPa 0,0 l/m 10,8 km/h (2 Bft) O 84 0 min 0,000 mm 2,0 UV-I 323 W/m 9,4 C 12,5 C 15,8 km/h (3 Bft) 0,00 %
15.05.2015 14:15 14,8 C 68 % 1010,7 hPa 0,0 l/m 4,7 km/h (1 Bft) O-SO 109 0 min 0,000 mm 2,0 UV-I 369 W/m 9,0 C 14,8 C 7,9 km/h (2 Bft) 0,00 %
15.05.2015 14:30 14,9 C 69 % 1010,8 hPa 0,0 l/m 8,3 km/h (2 Bft) O-SO 109 0 min 0,000 mm 2,0 UV-I 357 W/m 9,3 C 13,8 C 11,9 km/h (2 Bft) 0,00 %
15.05.2015 14:45 15,0 C 70 % 1011,0 hPa 0,0 l/m 7,9 km/h (2 Bft) O 95 0 min 0,000 mm 1,0 UV-I 299 W/m 9,6 C 14,2 C 7,9 km/h (2 Bft) 0,00 %
15.05.2015 15:00 14,6 C 70 % 1010,5 hPa 0,0 l/m 8,3 km/h (2 Bft) O-SO 121 0 min 0,000 mm 2,0 UV-I 212 W/m 9,2 C 13,5 C 11,9 km/h (2 Bft) 0,00 %
15.05.2015 15:15 14,8 C 70 % 1011,0 hPa 0,0 l/m 9,7 km/h (2 Bft) SO 139 0 min 0,000 mm 2,0 UV-I 229 W/m 9,4 C 13,0 C 11,9 km/h (2 Bft) 0,00 %
15.05.2015 15:30 15,0 C 68 % 1011,2 hPa 0,0 l/m 7,2 km/h (2 Bft) O 96 0 min 0,000 mm 2,0 UV-I 295 W/m 9,1 C 14,5 C 7,9 km/h (2 Bft) 0,00 %
15.05.2015 15:45 15,4 C 69 % 1011,0 hPa 0,0 l/m 4,3 km/h (1 Bft) O-NO 66 0 min 0,000 mm 2,0 UV-I 299 W/m 9,7 C 15,4 C 7,9 km/h (2 Bft) 0,00 %
15.05.2015 16:00 15,2 C 69 % 1011,0 hPa 0,0 l/m 9,7 km/h (2 Bft) S-SO 154 0 min 0,000 mm 2,0 UV-I 321 W/m 9,6 C 13,5 C 11,9 km/h (2 Bft) 0,00 %
15.05.2015 16:15 15,4 C 68 % 1011,1 hPa 0,0 l/m 3,2 km/h (1 Bft) SO 143 0 min 0,000 mm 2,0 UV-I 297 W/m 9,5 C 15,4 C 7,9 km/h (2 Bft) 0,00 %
15.05.2015 16:30 15,3 C 67 % 1011,3 hPa 0,0 l/m 10,8 km/h (2 Bft) O-SO 108 0 min 0,000 mm 2,0 UV-I 298 W/m 9,2 C 13,1 C 15,8 km/h (3 Bft) 0,00 %
15.05.2015 16:45 15,3 C 69 % 1011,4 hPa 0,0 l/m 2,2 km/h (1 Bft) S 173 0 min 0,000 mm 2,0 UV-I 284 W/m 9,6 C 15,3 C 4,0 km/h (1 Bft) 0,00 %
15.05.2015 17:00 15,1 C 68 % 1011,5 hPa 0,0 l/m 9,7 km/h (2 Bft) O-SO 106 0 min 0,000 mm 1,0 UV-I 241 W/m 9,2 C 13,4 C 11,9 km/h (2 Bft) 0,00 %
15.05.2015 17:15 15,1 C 70 % 1011,7 hPa 0,0 l/m 4,3 km/h (1 Bft) SO 142 0 min 0,000 mm 1,0 UV-I 192 W/m 9,7 C 15,1 C 7,9 km/h (2 Bft) 0,00 %
15.05.2015 17:30 15,2 C 68 % 1011,9 hPa 0,0 l/m 9,0 km/h (2 Bft) SO 141 0 min 0,000 mm 1,0 UV-I 192 W/m 9,3 C 13,8 C 11,9 km/h (2 Bft) 0,00 %
15.05.2015 17:45 15,0 C 70 % 1012,2 hPa 0,0 l/m 4,3 km/h (1 Bft) O-SO 119 0 min 0,000 mm 1,0 UV-I 144 W/m 9,6 C 15,0 C 7,9 km/h (2 Bft) 0,00 %
15.05.2015 18:00 15,0 C 70 % 1012,2 hPa 0,0 l/m 1,8 km/h (1 Bft) S-SO 157 0 min 0,000 mm 1,0 UV-I 120 W/m 9,6 C 15,0 C 4,0 km/h (1 Bft) 0,00 %
15.05.2015 18:15 14,7 C 71 % 1012,5 hPa 0,0 l/m 12,2 km/h (2 Bft) O 87 0 min 0,000 mm 0,0 UV-I 79 W/m 9,5 C 11,8 C 15,8 km/h (3 Bft) 0,00 %
15.05.2015 18:30 14,4 C 73 % 1012,6 hPa 0,0 l/m 0,0 km/h (0 Bft) W-SW 248 0 min 0,000 mm 0,0 UV-I 56 W/m 9,6 C 14,4 C 0,0 km/h (0 Bft) 0,00 %
15.05.2015 18:45 14,1 C 75 % 1012,8 hPa 0,0 l/m 0,4 km/h (0 Bft) SO 144 0 min 0,000 mm 0,0 UV-I 42 W/m 9,7 C 14,1 C 4,0 km/h (1 Bft) 0,00 %
15.05.2015 19:00 13,8 C 75 % 1013,0 hPa 0,0 l/m 4,7 km/h (1 Bft) O 99 0 min 0,000 mm 0,0 UV-I 35 W/m 9,4 C 13,8 C 7,9 km/h (2 Bft) 0,00 %
15.05.2015 19:15 13,8 C 73 % 1013,1 hPa 0,0 l/m 0,0 km/h (0 Bft) S 173 0 min 0,000 mm 0,0 UV-I 29 W/m 9,0 C 13,8 C 0,0 km/h (0 Bft) 0,00 %
15.05.2015 19:30 13,6 C 75 % 1013,4 hPa 0,0 l/m 0,0 km/h (0 Bft) SO 130 0 min 0,000 mm 0,0 UV-I 20 W/m 9,3 C 13,6 C 0,0 km/h (0 Bft) 0,00 %
15.05.2015 19:45 13,2 C 76 % 1013,6 hPa 0,0 l/m 5,8 km/h (2 Bft) O-SO 108 0 min 0,000 mm 0,0 UV-I 9 W/m 9,1 C 13,2 C 7,9 km/h (2 Bft) 0,00 %
15.05.2015 20:00 13,0 C 77 % 1013,6 hPa 0,0 l/m 1,4 km/h (1 Bft) S 177 0 min 0,000 mm 0,0 UV-I 4 W/m 9,1 C 13,0 C 4,0 km/h (1 Bft) 0,00 %
15.05.2015 20:15 12,9 C 77 % 1013,9 hPa 0,0 l/m 1,4 km/h (1 Bft) SO 141 0 min 0,000 mm 0,0 UV-I 0 W/m 9,0 C 12,9 C 4,0 km/h (1 Bft) 0,00 %
15.05.2015 20:30 12,7 C 75 % 1014,1 hPa 0,0 l/m 0,0 km/h (0 Bft) SO 145 0 min 0,000 mm 0,0 UV-I 0 W/m 8,4 C 12,7 C 0,0 km/h (0 Bft) 0,00 %
15.05.2015 20:45 12,6 C 75 % 1014,6 hPa 0,0 l/m 1,4 km/h (1 Bft) SO 128 0 min 0,000 mm 0,0 UV-I 0 W/m 8,3 C 12,6 C 4,0 km/h (1 Bft) 0,00 %
15.05.2015 21:00 12,6 C 76 % 1015,0 hPa 0,0 l/m 0,0 km/h (0 Bft) S-SO 158 0 min 0,000 mm 0,0 UV-I 0 W/m 8,5 C 12,6 C 0,0 km/h (0 Bft) 0,00 %
15.05.2015 21:15 12,4 C 78 % 1015,3 hPa 0,0 l/m 0,0 km/h (0 Bft) O-SO 121 0 min 0,000 mm 0,0 UV-I 0 W/m 8,7 C 12,4 C 0,0 km/h (0 Bft) 0,00 %
15.05.2015 21:30 12,2 C 80 % 1015,6 hPa 0,0 l/m 0,0 km/h (0 Bft) S 176 0 min 0,000 mm 0,0 UV-I 0 W/m 8,9 C 12,2 C 0,0 km/h (0 Bft) 0,00 %
15.05.2015 21:45 12,0 C 82 % 1015,8 hPa 0,0 l/m 0,0 km/h (0 Bft) S 174 0 min 0,000 mm 0,0 UV-I 0 W/m 9,0 C 12,0 C 0,0 km/h (0 Bft) 0,00 %
15.05.2015 22:00 11,8 C 83 % 1016,1 hPa 0,0 l/m 0,0 km/h (0 Bft) S 178 0 min 0,000 mm 0,0 UV-I 0 W/m 9,0 C 11,8 C 0,0 km/h (0 Bft) 0,00 %
15.05.2015 22:15 11,6 C 84 % 1016,4 hPa 0,0 l/m 0,0 km/h (0 Bft) S 175 0 min 0,000 mm 0,0 UV-I 0 W/m 9,0 C 11,6 C 0,0 km/h (0 Bft) 0,00 %
15.05.2015 22:30 11,5 C 84 % 1016,6 hPa 0,0 l/m 0,0 km/h (0 Bft) S 175 0 min 0,000 mm 0,0 UV-I 0 W/m 8,9 C 11,5 C 0,0 km/h (0 Bft) 0,00 %
15.05.2015 22:45 11,4 C 83 % 1016,7 hPa 0,0 l/m 0,0 km/h (0 Bft) SO 134 0 min 0,000 mm 0,0 UV-I 0 W/m 8,6 C 11,4 C 0,0 km/h (0 Bft) 0,00 %
15.05.2015 23:00 11,5 C 82 % 1016,8 hPa 0,0 l/m 0,0 km/h (0 Bft) S 172 0 min 0,000 mm 0,0 UV-I 0 W/m 8,5 C 11,5 C 0,0 km/h (0 Bft) 0,00 %
15.05.2015 23:15 11,6 C 80 % 1017,1 hPa 0,0 l/m 2,9 km/h (1 Bft) SO 141 0 min 0,000 mm 0,0 UV-I 0 W/m 8,3 C 11,6 C 7,9 km/h (2 Bft) 0,00 %
15.05.2015 23:30 11,5 C 80 % 1017,1 hPa 0,0 l/m 0,0 km/h (0 Bft) S 174 0 min 0,000 mm 0,0 UV-I 0 W/m 8,2 C 11,5 C 0,0 km/h (0 Bft) 0,00 %
_ Min-Zeit 05:15 13:15 03:30 - 00:00 - - - - - - 04:30 04:45 00:00 00:00
Minimum _ 10,8 C 67 % 1007,7 hPa - 0,0 km/h (0 Bft) - - - - - - 6,9 C 7,7 C 0,0 km/h (0 Bft) 0,00 %
_ Max-Zeit 15:45 01:45 23:15 00:00 18:15 - - 13:45 00:00 11:15 13:45 00:45 15:45 04:45 00:00
Maximum _ 15,4 C 90 % 1017,1 hPa 0,0 l/m 12,2 km/h
O (2 Bft)
- - 15 min 0,000 mm 3,0 UV-I 484 W/m 10,4 C 15,4 C 19,8 km/h
O (3 Bft)
0,00 %
Durchschnitt _ 12,7 C 77 % 1010,8 hPa #0,0 l/m 4,1 km/h (1 Bft) O-SO - #15 min. #0,000 mm 1,8 UV-I 209 W/m 8,6 C 12,3 C 6,5 km/h (2 Bft) 0,00 %